When you browse on this site, cookies collect data to enhance your experience and personalize the content and advertising you see.
Visit our Privacy Policy to learn more. By continuing to use the site, you agree to this use of cookies and data.
  • En España
  • Lista de países
  • Para 7 días
  • Temperatura del agua
  • Mapa Satelital
  • El tiempo en el mapa
  • Informadores
  • user-avatar
    Iniciar sesión

    Tiempo cada hora Krotivka

    Hoy, 24 Mayo, Viernes

    Tiempo Temperatura Precipitaciones Viento Presión Humedad
    00:00 +16°C° 0 mm 0 mps 746 mmHg 81%
    01:00 +15°C° 0 mm 0 mps 746 mmHg 82%
    02:00 +15°C° 0 mm 0 mps 746 mmHg 82%
    03:00 +16°C° 0 mm 1 mps 746 mmHg 83%
    04:00 +16°C° 0 mm 1 mps 746 mmHg 83%
    05:00 +16°C° 0 mm 1 mps 746 mmHg 83%
    06:00 +18°C° 0 mm 2 mps 746 mmHg 77%
    07:00 +20°C° 0 mm 2 mps 746 mmHg 71%
    08:00 +21°C° 0 mm 2 mps 747 mmHg 65%
    09:00 +23°C° 0 mm 2 mps 746 mmHg 60%
    10:00 +24°C° 0 mm 2 mps 746 mmHg 54%
    11:00 +26°C° 0 mm 2 mps 746 mmHg 49%
    12:00 +26°C° 0 mm 2 mps 746 mmHg 47%
    13:00 +26°C° 0 mm 2 mps 746 mmHg 46%
    14:00 +27°C° 0 mm 2 mps 746 mmHg 44%
    15:00 +26°C° 0 mm 2 mps 746 mmHg 47%
    16:00 +26°C° 0 mm 1 mps 745 mmHg 50%
    17:00 +25°C° 0 mm 1 mps 745 mmHg 53%
    18:00 +24°C° 0 mm 1 mps 745 mmHg 55%
    19:00 +23°C° 0 mm 1 mps 745 mmHg 56%
    20:00 +22°C° 0 mm 1 mps 745 mmHg 58%
    21:00 +20°C° 0.6 mm 2 mps 745 mmHg 66%
    22:00 +19°C° 0.6 mm 2 mps 745 mmHg 75%
    23:00 +17°C° 0.6 mm 3 mps 745 mmHg 83%

    Mañana, 25 Mayo, Sábado

    Tiempo Temperatura Precipitaciones Viento Presión Humedad
    00:00 +17°C° 0 mm 2 mps 745 mmHg 83%
    01:00 +17°C° 0 mm 2 mps 745 mmHg 82%
    02:00 +18°C° 0 mm 1 mps 745 mmHg 82%
    03:00 +18°C° 0 mm 1 mps 745 mmHg 82%
    04:00 +18°C° 0 mm 1 mps 745 mmHg 82%
    05:00 +19°C° 0 mm 1 mps 744 mmHg 82%
    06:00 +20°C° 0.1 mm 1 mps 744 mmHg 77%
    07:00 +21°C° 0.1 mm 1 mps 745 mmHg 71%
    08:00 +22°C° 0.1 mm 1 mps 745 mmHg 66%
    09:00 +23°C° 0 mm 2 mps 745 mmHg 61%
    10:00 +24°C° 0 mm 2 mps 744 mmHg 55%
    11:00 +25°C° 0 mm 2 mps 744 mmHg 49%
    12:00 +26°C° 0 mm 2 mps 744 mmHg 48%
    13:00 +26°C° 0 mm 3 mps 744 mmHg 46%
    14:00 +27°C° 0 mm 3 mps 744 mmHg 44%
    15:00 +26°C° 0.1 mm 3 mps 744 mmHg 47%
    16:00 +26°C° 0.1 mm 3 mps 743 mmHg 51%
    17:00 +25°C° 0.1 mm 3 mps 743 mmHg 54%
    18:00 +24°C° 0.3 mm 3 mps 743 mmHg 60%
    19:00 +21°C° 0.3 mm 3 mps 744 mmHg 67%
    20:00 +20°C° 0.3 mm 3 mps 744 mmHg 73%
    21:00 +19°C° 0.4 mm 3 mps 744 mmHg 77%
    22:00 +18°C° 0.4 mm 3 mps 744 mmHg 80%
    23:00 +18°C° 0.4 mm 3 mps 744 mmHg 84%

    Pasado mañana, 26 Mayo, Domingo

    Tiempo Temperatura Precipitaciones Viento Presión Humedad
    00:00 +17°C° 0.1 mm 3 mps 744 mmHg 86%
    01:00 +17°C° 0.1 mm 3 mps 744 mmHg 88%
    02:00 +16°C° 0.1 mm 3 mps 744 mmHg 90%
    03:00 +16°C° 0 mm 3 mps 744 mmHg 90%
    04:00 +16°C° 0 mm 3 mps 744 mmHg 90%
    05:00 +16°C° 0 mm 3 mps 745 mmHg 90%
    06:00 +18°C° 0.1 mm 3 mps 745 mmHg 85%
    07:00 +20°C° 0.1 mm 3 mps 745 mmHg 79%
    08:00 +21°C° 0.1 mm 4 mps 746 mmHg 73%
    09:00 +22°C° 0.3 mm 4 mps 746 mmHg 67%
    10:00 +25°C° 0.3 mm 4 mps 746 mmHg 61%
    11:00 +26°C° 0.3 mm 5 mps 746 mmHg 55%
    12:00 +26°C° 0.2 mm 5 mps 746 mmHg 54%
    13:00 +26°C° 0.2 mm 5 mps 747 mmHg 52%
    14:00 +27°C° 0.2 mm 5 mps 747 mmHg 50%
    15:00 +26°C° 0 mm 5 mps 747 mmHg 50%
    16:00 +26°C° 0 mm 5 mps 747 mmHg 51%
    17:00 +26°C° 0 mm 5 mps 747 mmHg 51%
    18:00 +23°C° 0 mm 4 mps 748 mmHg 57%
    19:00 +22°C° 0 mm 3 mps 748 mmHg 63%
    20:00 +20°C° 0 mm 3 mps 749 mmHg 69%
    21:00 +19°C° 0 mm 2 mps 749 mmHg 71%
    22:00 +19°C° 0 mm 2 mps 749 mmHg 74%
    23:00 +18°C° 0 mm 2 mps 750 mmHg 77%

    27 Mayo, Lunes

    Tiempo Temperatura Precipitaciones Viento Presión Humedad
    00:00 +18°C° 0 mm 2 mps 750 mmHg 79%
    01:00 +17°C° 0 mm 2 mps 750 mmHg 81%
    02:00 +17°C° 0 mm 2 mps 750 mmHg 83%
    03:00 +17°C° 0 mm 2 mps 751 mmHg 83%
    04:00 +18°C° 0 mm 1 mps 751 mmHg 84%
    05:00 +18°C° 0 mm 1 mps 751 mmHg 84%
    06:00 +20°C° 0 mm 1 mps 751 mmHg 77%
    07:00 +22°C° 0 mm 1 mps 752 mmHg 69%
    08:00 +22°C° 0 mm 0 mps 752 mmHg 62%
    09:00 +25°C° 0 mm 1 mps 752 mmHg 57%
    10:00 +26°C° 0 mm 2 mps 752 mmHg 52%
    11:00 +27°C° 0 mm 2 mps 752 mmHg 47%
    12:00 +28°C° 0 mm 3 mps 752 mmHg 46%
    13:00 +28°C° 0 mm 3 mps 752 mmHg 44%
    14:00 +29°C° 0 mm 3 mps 752 mmHg 42%
    15:00 +29°C° 0 mm 3 mps 752 mmHg 43%
    16:00 +29°C° 0 mm 3 mps 752 mmHg 43%
    17:00 +29°C° 0 mm 3 mps 752 mmHg 44%
    18:00 +27°C° 0 mm 2 mps 752 mmHg 49%
    19:00 +25°C° 0 mm 2 mps 752 mmHg 54%
    20:00 +23°C° 0 mm 2 mps 752 mmHg 60%
    21:00 +23°C° 0 mm 2 mps 752 mmHg 63%
    22:00 +21°C° 0 mm 2 mps 752 mmHg 66%
    23:00 +20°C° 0 mm 2 mps 753 mmHg 69%

    28 Mayo, Martes

    Tiempo Temperatura Precipitaciones Viento Presión Humedad
    00:00 +19°C° 0 mm 2 mps 753 mmHg 71%
    01:00 +19°C° 0 mm 2 mps 753 mmHg 73%
    02:00 +18°C° 0 mm 2 mps 753 mmHg 75%
    03:00 +18°C° 0 mm 2 mps 753 mmHg 76%
    04:00 +19°C° 0 mm 1 mps 753 mmHg 78%
    05:00 +19°C° 0 mm 1 mps 753 mmHg 79%
    06:00 +20°C° 0 mm 2 mps 753 mmHg 73%
    07:00 +22°C° 0 mm 3 mps 753 mmHg 68%
    08:00 +25°C° 0 mm 4 mps 753 mmHg 62%
    09:00 +26°C° 0 mm 5 mps 753 mmHg 56%
    10:00 +27°C° 0 mm 6 mps 753 mmHg 51%
    11:00 +28°C° 0 mm 6 mps 752 mmHg 45%
    12:00 +29°C° 0 mm 7 mps 752 mmHg 44%
    13:00 +29°C° 0 mm 7 mps 752 mmHg 43%
    14:00 +29°C° 0 mm 7 mps 751 mmHg 41%
    15:00 +29°C° 0 mm 7 mps 751 mmHg 44%
    16:00 +28°C° 0 mm 7 mps 751 mmHg 47%
    17:00 +28°C° 0 mm 6 mps 751 mmHg 49%
    18:00 +26°C° 0 mm 6 mps 751 mmHg 54%
    19:00 +23°C° 0 mm 5 mps 751 mmHg 58%
    20:00 +22°C° 0 mm 5 mps 751 mmHg 63%
    21:00 +21°C° 0 mm 5 mps 751 mmHg 68%
    22:00 +20°C° 0 mm 5 mps 751 mmHg 73%
    23:00 +19°C° 0 mm 5 mps 751 mmHg 78%

    29 Mayo, Miércoles

    Tiempo Temperatura Precipitaciones Viento Presión Humedad
    00:00 +19°C° 0 mm 5 mps 751 mmHg 80%
    01:00 +18°C° 0 mm 4 mps 750 mmHg 83%
    02:00 +18°C° 0 mm 4 mps 750 mmHg 86%
    03:00 +18°C° 0 mm 4 mps 750 mmHg 87%
    04:00 +18°C° 0 mm 4 mps 750 mmHg 87%
    05:00 +17°C° 0 mm 5 mps 750 mmHg 88%
    06:00 +20°C° 0 mm 5 mps 750 mmHg 81%
    07:00 +22°C° 0 mm 6 mps 750 mmHg 73%
    08:00 +24°C° 0 mm 7 mps 750 mmHg 65%
    09:00 +27°C° 0 mm 7 mps 750 mmHg 59%
    10:00 +28°C° 0 mm 7 mps 750 mmHg 52%
    11:00 +30°C° 0 mm 7 mps 750 mmHg 46%
    12:00 +30°C° 0 mm 7 mps 750 mmHg 45%
    13:00 +30°C° 0 mm 7 mps 749 mmHg 43%
    14:00 +32°C° 0 mm 7 mps 749 mmHg 42%
    15:00 +29°C° 0 mm 6 mps 749 mmHg 48%
    16:00 +28°C° 0 mm 5 mps 749 mmHg 54%
    17:00 +27°C° 0 mm 4 mps 749 mmHg 60%
    18:00 +26°C° 0 mm 4 mps 749 mmHg 64%
    19:00 +25°C° 0 mm 4 mps 749 mmHg 69%
    20:00 +23°C° 0 mm 4 mps 749 mmHg 73%
    21:00 +22°C° 0 mm 4 mps 750 mmHg 75%
    22:00 +21°C° 0 mm 4 mps 750 mmHg 77%
    23:00 +20°C° 0 mm 4 mps 750 mmHg 79%
    Mostrar más